Date String (YYYY-MM-DD hh:mm:ss) UTC,Instrument flags,Ambient pressure (hPa),Sample flow (lpm),Bypass flow (lpm),Sample temperature (°C),Ambient temperature (°C),ASC tube jacket temperature (°C),LED temperature (°C),Box temperature (°C),Sample RH (%),Span deviation,Mass concentration (μg/m³),Mass concentration (μg/m³),Mass concentration (μg/m³)
DateTimeUTC,F1_M11,P_M11,Q1_M11,Q2_M11,T1_M11,T2_M11,T3_M11,T4_M11,T5_M11,U1_M11,ZSPAN_M11,X0_M11,X2_M11,X1_M11
2021-10-07 02:00:00,,0824.8,4.99,0.00,29.8,28.9,00.0,38.7,31.6,15.8,0000.0,0003.21,0001.57,0001.28
2021-10-07 02:01:00,,0824.8,5.00,0.00,29.8,28.9,00.0,38.7,31.7,15.7,0000.0,0004.14,0001.55,0001.27
2021-10-07 02:02:00,,0824.7,5.00,0.00,29.8,27.3,00.0,38.7,31.3,15.7,0000.0,0004.40,0001.54,0001.26
2021-10-07 02:03:00,,0824.7,5.00,0.00,29.6,25.4,00.0,38.7,30.7,15.7,0000.0,0004.40,0001.53,0001.26
2021-10-07 02:04:00,,0824.8,5.00,0.00,29.4,25.4,00.0,38.6,30.7,15.9,0000.0,0004.07,0001.54,0001.26
2021-10-07 02:05:00,,0824.8,5.01,0.00,29.3,25.8,00.0,38.6,30.7,15.9,0000.0,0003.82,0001.54,0001.25
2021-10-07 02:06:00,,0824.8,5.00,0.00,29.3,26.3,00.0,38.5,30.8,15.8,0000.0,0004.28,0001.51,0001.24
2021-10-07 02:07:00,,0824.8,5.00,0.00,29.3,26.8,00.0,38.5,30.8,15.9,0000.0,0004.11,0001.46,0001.22
2021-10-07 02:08:00,,0824.8,4.99,0.00,29.3,27.2,00.0,38.5,30.9,15.9,0000.0,0004.03,0001.45,0001.19
2021-10-07 02:09:00,,0824.8,4.99,0.00,29.3,27.5,00.0,38.5,31.0,15.9,0000.0,0004.07,0001.46,0001.18
2021-10-07 02:10:00,,0824.8,5.01,0.00,29.3,27.7,00.0,38.5,31.1,15.8,0000.0,0004.78,0001.47,0001.17
2021-10-07 02:11:00,,0824.8,5.00,0.00,29.3,27.9,00.0,38.4,31.1,15.8,0000.0,0004.95,0001.45,0001.16
2021-10-07 02:12:00,,0824.8,5.01,0.00,29.4,28.1,00.0,38.4,31.1,15.8,0000.0,0005.57,0001.41,0001.13
2021-10-07 02:13:00,,0824.8,4.99,0.00,29.4,28.2,00.0,38.4,31.2,15.7,0000.0,0005.00,0001.39,0001.12
2021-10-07 02:14:00,,0824.8,5.01,0.00,29.4,28.3,00.0,38.5,31.2,15.7,0000.0,0004.96,0001.37,0001.11
2021-10-07 02:15:00,,0824.8,5.00,0.00,29.5,28.4,00.0,38.5,31.3,15.6,0000.0,0004.85,0001.32,0001.09
2021-10-07 02:16:00,,0824.8,5.00,0.00,29.5,28.5,00.0,38.5,31.3,15.6,0000.0,0004.84,0001.32,0001.09
2021-10-07 02:17:00,,0824.8,5.00,0.00,29.5,28.6,00.0,38.5,31.3,15.6,0000.0,0004.50,0001.34,0001.08
2021-10-07 02:18:00,,0824.8,4.99,0.00,29.6,28.6,00.0,38.5,31.4,15.5,0000.0,0004.43,0001.33,0001.07
2021-10-07 02:19:00,,0824.8,5.01,0.00,29.6,28.7,00.0,38.6,31.4,15.5,0000.0,0004.60,0001.32,0001.07
2021-10-07 02:20:00,,0824.8,5.01,0.00,29.6,28.7,00.0,38.6,31.5,15.5,0000.0,0004.62,0001.33,0001.06
2021-10-07 02:21:00,,0824.8,4.99,0.00,29.7,28.8,00.0,38.6,31.5,15.4,0000.0,0003.95,0001.31,0001.06
2021-10-07 02:22:00,,0824.8,5.01,0.00,29.7,28.8,00.0,38.6,31.6,15.4,0000.0,0003.92,0001.31,0001.05
2021-10-07 02:23:00,,0824.8,5.00,0.00,29.7,28.9,00.0,38.6,31.6,15.4,0000.0,0002.65,0001.30,0001.05
2021-10-07 02:24:00,,0824.8,4.99,0.00,29.8,28.9,00.0,38.7,31.6,15.3,0000.0,0002.30,0001.28,0001.04
2021-10-07 02:25:00,,0824.7,5.01,0.00,29.8,28.9,00.0,38.7,31.7,15.2,0000.0,0002.33,0001.29,0001.03
2021-10-07 02:26:00,,0824.7,5.00,0.00,29.8,29.0,00.0,38.7,31.7,15.1,0000.0,0002.44,0001.31,0001.03
2021-10-07 02:27:00,,0824.8,4.99,0.00,29.9,29.0,00.0,38.8,31.7,15.2,0000.0,0002.45,0001.30,0001.02
2021-10-07 02:28:00,,0824.8,4.99,0.00,29.9,28.7,00.0,38.8,31.7,15.0,0000.0,0003.20,0001.28,0001.02
2021-10-07 02:29:00,,0824.9,5.02,0.00,29.8,26.8,00.0,38.8,31.2,15.2,0000.0,0003.37,0001.27,0001.01
2021-10-07 02:30:00,,0824.8,5.00,0.00,29.7,26.3,00.0,38.8,31.1,15.3,0000.0,0003.19,0001.28,0001.02
2021-10-07 02:31:00,,0824.9,5.00,0.00,29.6,26.6,00.0,38.7,31.0,15.3,0000.0,0003.07,0001.24,0001.02
2021-10-07 02:32:00,,0824.9,5.00,0.00,29.5,26.9,00.0,38.7,31.1,15.2,0000.0,0002.96,0001.21,0001.02
2021-10-07 02:33:00,,0824.9,5.00,0.00,29.5,27.3,00.0,38.7,31.1,15.3,0000.0,0002.97,0001.23,0001.02
2021-10-07 02:34:00,,0824.9,5.01,0.00,29.5,27.6,00.0,38.7,31.2,15.2,0000.0,0003.03,0001.25,0001.02
2021-10-07 02:35:00,,0824.9,5.00,0.00,29.5,27.9,00.0,38.7,31.2,15.2,0000.0,0002.92,0001.24,0001.03
2021-10-07 02:36:00,,0824.9,5.00,0.00,29.5,28.1,00.0,38.7,31.3,15.2,0000.0,0002.97,0001.23,0001.02
2021-10-07 02:37:00,,0824.9,4.99,0.00,29.6,28.2,00.0,38.7,31.3,15.2,0000.0,0002.92,0001.21,0001.02
2021-10-07 02:38:00,,0824.9,5.00,0.00,29.6,28.3,00.0,38.7,31.4,15.2,0000.0,0002.92,0001.20,0001.01
2021-10-07 02:39:00,,0824.9,5.00,0.00,29.6,28.5,00.0,38.7,31.4,15.1,0000.0,0002.22,0001.16,0000.99
2021-10-07 02:40:00,,0824.9,4.99,0.00,29.7,28.5,00.0,38.7,31.4,15.1,0000.0,0001.78,0001.14,0000.99
2021-10-07 02:41:00,,0824.9,5.00,0.00,29.7,28.6,00.0,38.7,31.5,15.1,0000.0,0001.75,0001.13,0000.98
2021-10-07 02:42:00,,0824.9,4.99,0.00,29.7,28.7,00.0,38.7,31.5,15.1,0000.0,0001.74,0001.12,0000.98
2021-10-07 02:43:00,,0824.9,5.01,0.00,29.7,28.8,00.0,38.7,31.5,15.0,0000.0,0001.75,0001.13,0000.96
2021-10-07 02:44:00,,0824.9,5.01,0.00,29.8,28.8,00.0,38.7,31.6,14.9,0000.0,0001.71,0001.11,0000.96
2021-10-07 02:45:00,,0824.9,4.99,0.00,29.8,28.9,00.0,38.8,31.6,14.8,0000.0,0001.67,0001.10,0000.96
2021-10-07 02:46:00,,0824.9,4.99,0.00,29.8,29.0,00.0,38.8,31.7,14.9,0000.0,0002.15,0001.10,0000.96
2021-10-07 02:47:00,,0824.9,5.00,0.00,29.9,29.0,00.0,38.8,31.7,14.8,0000.0,0002.18,0001.14,0000.97
2021-10-07 02:48:00,,0824.9,5.00,0.00,29.9,29.0,00.0,38.8,31.8,14.8,0000.0,0002.18,0001.14,0000.96
2021-10-07 02:49:00,,0824.9,5.01,0.00,29.9,28.5,00.0,38.8,31.6,14.8,0000.0,0002.12,0001.14,0000.97
2021-10-07 02:50:00,,0824.9,5.00,0.00,29.8,26.6,00.0,38.8,31.2,14.8,0000.0,0002.13,0001.15,0000.98
2021-10-07 02:51:00,,0824.9,4.99,0.00,29.7,26.3,00.0,38.8,31.1,14.9,0000.0,0002.14,0001.16,0000.98
2021-10-07 02:52:00,,0824.9,5.00,0.00,29.6,26.7,00.0,38.8,31.1,15.0,0000.0,0002.16,0001.17,0000.99
2021-10-07 02:53:00,,0824.9,5.00,0.00,29.5,27.0,00.0,38.7,31.1,15.0,0000.0,0002.17,0001.18,0000.99
2021-10-07 02:54:00,,0824.9,5.01,0.00,29.5,27.4,00.0,38.7,31.2,15.0,0000.0,0002.16,0001.18,0000.99
2021-10-07 02:55:00,,0825.0,5.00,0.00,29.5,27.7,00.0,38.7,31.2,14.9,0000.0,0002.09,0001.15,0000.98
2021-10-07 02:56:00,,0825.0,5.01,0.00,29.6,27.9,00.0,38.7,31.3,14.9,0000.0,0002.02,0001.14,0000.97
2021-10-07 02:57:00,,0825.0,4.99,0.00,29.6,28.1,00.0,38.7,31.3,14.9,0000.0,0001.57,0001.15,0000.96
2021-10-07 02:58:00,,0825.1,5.01,0.00,29.6,28.3,00.0,38.7,31.4,14.9,0000.0,0001.54,0001.14,0000.96
2021-10-07 02:59:00,,0825.1,5.01,0.00,29.6,28.4,00.0,38.7,31.4,14.8,0000.0,0001.64,0001.16,0000.95
